Flag for U.S.A. Weather past 2 weeks in Narragansett, Rhode Island, U.S.A.

Now
67 °F

Clear.


Feels Like: 67 °F
Forecast: 67 / 80 °F
Wind: 5 mph from North

Location: Newport State Airport

Current Time: Aug 2, 2015 at 4:32:54 AM

Latest Report: Aug 2, 2015 at 3:53 AM


Visibility: 10 mi

Pressure: 29.83 "Hg

Humidity: 85%

Dew point: 62 °F

Location of NarragansettLocation

Historic Weather in Narragansett — Graph

°F

Narragansett temperature yesterday

Maximum temperature yesterday: 82 °F (at 12:53 PM)
Minimum temperature yesterday: 65 °F (at 1:53 AM)
Average temperature yesterday: 74 °F

Past Weeks' High & Low Weather Summary

 TemperatureHumidityPressure
High89 °F (Jul 20, 11:53 AM)100% (Jul 19, 6:53 AM)30.08 "Hg (Jul 19, 6:53 AM)
Low61 °F (Jul 24, 1:53 AM)39% (Jul 23, 5:53 PM)29.55 "Hg (Jul 21, 6:53 PM)
Average73 °F79%29.86 "Hg
* Reported Jul 18 2:53 AM — Aug 2 2:53 AM, Narragansett, Weather by CustomWeather, © 2015

Note: Actual official high and low records may vary slightly from our data, if they occured in-between our weather recording intervals... More about our weather records

Advertising

Narragansett weather history for previous 24 hours

 ConditionsComfort  
Time TempWeatherWind HumidityBarometerVisibility
2:53 AM
Sun, Aug 2
66 °FClear.No wind90%29.83 "Hg10 mi
1:53 AM66 °FClear.No wind90%29.83 "Hg10 mi
12:53 AM68 °FClear.No wind84%29.82 "Hg10 mi
11:53 PM
Sat, Aug 1
69 °FPassing clouds.No wind84%29.82 "Hg10 mi
10:53 PM70 °FClear.No wind81%29.81 "Hg10 mi
9:53 PM69 °FClear.No wind87%29.81 "Hg10 mi
8:53 PM72 °FSunny.3 mph78%29.80 "Hg8 mi
7:53 PM76 °FPassing clouds.No wind72%29.77 "Hg10 mi
6:53 PM76 °FSunny.5 mph74%29.75 "Hg10 mi
5:53 PM77 °FSunny.9 mph71%29.74 "Hg10 mi
4:53 PM80 °FSunny.9 mph64%29.73 "Hg10 mi
3:53 PM80 °FSunny.9 mph62%29.73 "Hg10 mi
2:53 PM81 °FSunny.10 mph58%29.74 "Hg10 mi
1:53 PM80 °FSunny.12 mph60%29.76 "Hg10 mi
12:53 PM82 °FSunny.7 mph60%29.76 "Hg10 mi
11:53 AM81 °FSunny.7 mph65%29.76 "Hg10 mi
10:53 AM80 °FSunny.5 mph67%29.77 "Hg10 mi
9:53 AM79 °FSunny.6 mph69%29.77 "Hg10 mi
8:53 AM77 °FSunny.3 mph71%29.77 "Hg10 mi
7:53 AM74 °FOvercast.6 mph74%29.77 "Hg10 mi
6:53 AM72 °FSunny.5 mph76%29.76 "Hg10 mi
5:53 AM68 °FClear.No wind84%29.76 "Hg10 mi
4:53 AM68 °FClear.No wind84%29.76 "Hg10 mi
Weather by CustomWeather, © 2015

See weather overviewHow to use our weather pages